RH
67 52 28 18 16 14 12 10 10 11 20 60 71 86 97 96 91 66 44 25 8 18 21 25 36 31 30 32 35 38 40 44 35 35 61 87 94 98 97 96 92 80 66
23 18 19 16 12 8 7 7 6 6 31 87 97 88 91 92 63 56 40 16 16 23 28 40 37 32 32 38 41 42 41 43 48 42 32 34 42 70 96 98 96 90 74
18 15 12 9 8 8 7 6 6 6 10 47 80 79 82 92 64 72 27 24 38 34 40 39 36 36 42 50 58 62 63 61 53 55 52 40 34 53 60 87 98 97 84
13 12 12 10 9 8 8 7 9 19 33 45 79 91 93 99 92 64 43 39 38 43 44 44 44 51 60 69 74 73 76 74 72 66 66 60 50 40 43 60 69 90 83
14 13 12 11 10 9 9 10 19 29 37 63 78 98 99 97 85 39 39 38 43 44 42 41 52 67 78 80 78 74 80 90 97 98 93 81 67 54 46 44 77 55 44
16 15 14 12 12 12 11 14 25 37 49 84 81 98 96 90 63 39 38 39 43 38 35 47 68 77 81 87 89 87 85 93 100 100 100 100 100 97 70 56 50 41 30
17 14 13 14 15 15 15 20 34 46 51 98 80 81 91 86 65 36 34 35 36 35 43 62 76 84 88 95 99 98 98 95 100 100 100 99 100 98 85 62 59 49 24
16 16 16 18 18 17 25 33 44 55 63 66 76 87 95 100 50 28 30 34 36 38 51 72 84 88 94 97 99 98 100 100 100 100 100 97 82 84 82 70 60 42 30
16 17 19 22 19 20 36 46 55 65 80 82 87 100 100 59 28 27 30 34 36 40 61 84 92 89 93 94 96 98 100 100 100 99 100 100 86 74 68 61 52 45 33
16 18 19 20 21 32 48 52 60 73 92 99 100 97 39 28 28 30 34 39 36 40 70 90 92 94 97 99 99 100 100 100 100 100 100 96 89 81 78 64 52 44 37
15 16 17 21 31 44 57 63 69 81 87 78 40 33 30 26 32 38 40 45 34 44 75 90 93 97 99 99 100 100 100 100 100 100 100 100 97 84 77 67 56 49 44
14 15 20 29 41 56 64 69 72 46 28 27 35 34 30 32 40 41 44 42 40 48 80 92 94 94 98 99 100 100 100 100 100 100 100 100 100 99 91 81 69 61 61
17 24 32 42 52 76 76 73 38 28 27 34 38 34 34 38 48 50 47 42 43 50 81 94 96 96 98 12 22 98 100 100 100 100 100 100 100 100 100 100 100 100 100
21 30 42 57 79 96 87 69 36 25 24 30 39 39 38 46 59 60 50 41 40 49 78 96 97 93 92 46 22 63 99 100 100 100 100 100 100 100 100 100 100 100 100
28 42 51 76 96 97 94 67 32 24 22 26 40 41 43 53 61 58 48 42 40 51 72 94 100 100 94 79 42 41 75 99 99 100 100 100 100 100 100 100 100 100 100
35 53 65 89 100 100 98 51 29 24 23 30 42 45 42 51 56 50 48 45 44 58 65 89 99 100 99 97 63 38 40 81 100 100 100 100 100 100 100 100 100 100 100
51 56 76 96 100 100 73 34 26 28 28 35 42 39 43 48 48 49 50 52 49 58 70 74 92 99 99 97 86 43 36 37 87 100 98 99 100 100 100 100 100 100 98
58 60 74 84 91 73 34 28 26 23 26 41 38 40 44 42 43 46 52 58 58 60 74 72 78 90 97 99 97 90 41 35 35 72 100 100 100 99 100 100 100 100 96
59 68 74 80 73 31 26 29 28 23 26 32 34 40 38 39 41 44 52 53 55 53 61 73 76 80 90 94 96 96 94 46 34 33 43 96 99 99 99 100 100 100 100
60 81 83 79 62 35 37 34 26 23 26 32 38 39 37 39 38 44 48 44 42 42 42 54 73 79 82 88 93 95 97 97 69 37 30 31 45 90 100 100 99 98 98
62 83 94 90 65 43 45 33 22 23 28 33 38 38 38 39 37 43 45 44 42 40 38 38 47 73 83 83 88 92 95 95 98 94 51 34 28 26 35 42 51 71 86
60 81 94 99 70 56 52 30 18 22 28 32 35 36 38 41 37 39 44 46 46 46 47 44 39 39 61 79 86 91 94 96 96 96 97 88 45 32 27 24 22 22 22
63 80 92 99 77 66 58 43 18 20 26 32 33 33 37 42 40 37 39 41 46 50 50 50 49 41 37 43 75 88 92 95 98 99 100 98 98 81 42 34 29 27 27
59 77 88 94 81 76 72 63 39 19 22 31 34 34 38 43 45 42 42 45 51 55 54 53 53 53 37 36 45 78 90 92 94 97 98 99 99 99 98 77 46 42 40
52 70 86 89 86 86 86 90 82 58 31 25 33 38 40 43 48 51 48 48 52 55 60 60 58 57 34 32 42 62 88 92 94 95 96 98 99 100 100 100 98 69 53
48 62 79 90 97 98 98 99 100 98 93 70 36 34 41 45 49 54 56 54 57 60 64 67 64 62 29 25 36 62 83 93 94 95 96 97 98 99 100 100 100 100 99
Wind_Speed
43 47 46 44 44 44 46 48 48 47 45 47 45 42 44 42 35 35 37 37 32 29 32 35 35 37 38 39 40 40 39 38 43 42 40 38 37 27 27 28 28 28 25
44 42 42 43 45 46 47 46 47 47 44 35 33 36 38 33 31 35 38 34 32 33 33 35 38 42 44 44 44 43 43 42 42 42 39 41 37 39 30 23 29 31 31
41 43 43 46 48 46 45 45 45 43 43 42 44 40 30 30 35 37 35 34 33 34 36 41 45 46 46 47 46 44 41 40 39 40 40 39 38 35 36 34 26 28 32
42 43 44 47 48 48 48 46 42 39 38 37 30 25 27 28 35 36 35 35 34 36 41 46 48 48 48 47 42 39 35 36 35 34 36 38 39 38 35 34 37 34 33
42 43 45 48 49 49 46 44 39 38 35 30 28 23 23 32 33 35 35 35 36 40 43 46 46 47 44 40 37 35 32 33 31 29 30 32 36 37 35 35 33 33 35
43 45 47 49 48 47 46 42 39 34 29 22 23 25 31 29 34 36 35 36 39 41 45 45 45 40 37 36 35 32 29 30 31 30 31 31 33 33 33 34 35 35 34
46 48 49 49 48 47 43 38 35 31 26 21 27 25 25 30 37 36 35 37 39 43 44 44 39 37 37 36 33 30 27 25 28 28 30 32 35 33 33 31 32 32 33
50 51 50 49 46 43 39 36 32 29 22 22 24 25 29 34 38 36 35 37 39 42 43 39 36 36 34 31 28 26 23 21 22 24 26 27 28 30 32 31 31 34 33
51 50 49 46 44 40 36 32 30 27 26 26 25 28 32 36 35 34 35 37 38 41 39 33 32 31 28 25 25 24 23 19 22 23 24 24 25 24 24 25 27 30 29
49 48 46 44 41 37 34 30 28 26 25 26 27 30 31 33 33 32 34 37 39 41 33 28 29 27 26 25 24 23 22 20 19 20 22 22 23 22 21 21 21 24 24
47 45 44 40 38 35 32 29 27 24 23 24 25 28 30 31 31 31 33 35 38 40 32 27 26 26 25 23 22 21 20 18 16 16 15 16 17 16 17 19 20 21 21
43 43 40 37 35 33 31 26 22 21 23 25 26 27 28 29 28 29 31 34 37 37 30 26 25 25 23 21 22 22 18 14 10 7 7 8 10 12 12 14 16 16 16
43 40 38 36 32 30 27 23 22 23 23 24 25 26 27 27 26 28 30 32 33 33 28 24 23 24 21 22 21 20 17 11 7 4 3 3 4 5 6 9 10 10 10
42 39 36 31 27 25 23 22 22 23 24 25 24 25 25 24 25 28 29 29 29 30 27 23 21 21 21 22 21 19 16 11 6 3 2 2 2 4 4 5 7 8 8
39 35 31 24 24 26 23 21 21 23 25 24 23 23 24 23 25 27 28 27 26 27 27 23 19 17 17 20 21 19 18 14 6 2 1 2 3 4 5 5 6 5 4
36 33 27 20 24 28 23 21 21 24 24 22 22 22 23 23 25 26 26 25 24 25 26 24 20 17 17 17 19 20 18 17 11 1 2 2 3 3 3 4 4 4 5
33 30 25 20 22 21 22 22 23 22 22 21 20 20 21 22 23 24 24 23 23 23 24 24 21 19 17 17 18 19 18 17 16 8 1 3 3 3 3 5 6 8 9
31 27 24 20 18 19 21 22 23 22 19 17 17 18 20 21 22 23 22 22 22 22 22 22 22 20 18 17 16 16 18 17 16 14 8 1 2 3 4 5 5 7 7
30 26 24 21 19 19 21 22 22 20 18 16 15 17 19 20 21 20 20 21 21 21 20 20 20 20 20 19 17 15 13 14 14 13 11 7 3 3 4 4 4 5 7
29 26 24 22 20 21 22 22 21 19 16 15 14 15 17 19 19 18 18 20 20 21 20 19 19 20 19 19 18 17 13 12 12 12 10 8 6 4 4 6 6 7 9
29 27 25 23 21 21 23 23 20 18 16 15 14 15 16 18 18 16 17 18 19 20 21 21 19 19 19 19 18 17 16 13 11 10 11 10 8 7 5 5 5 5 5
29 28 26 23 21 21 21 22 20 17 16 15 15 15 15 16 16 15 16 17 19 19 20 22 22 20 19 19 18 17 16 15 14 12 11 10 10 9 8 8 7 6 6
28 27 24 21 21 20 21 21 20 17 16 16 16 16 15 15 15 15 15 16 18 20 22 23 23 22 21 20 18 17 16 15 14 14 13 12 12 11 9 9 8 7 7
26 24 22 20 20 20 21 21 21 19 17 17 17 18 17 16 16 15 16 17 17 19 21 23 24 25 24 22 19 18 17 16 15 14 13 13 12 12 12 10 10 9 9
24 22 21 21 22 22 21 22 22 21 20 20 20 20 19 18 17 17 17 18 18 19 21 24 26 27 27 24 21 18 17 16 15 15 14 14 13 12 12 13 13 11 10
24 22 22 23 25 25 26 26 25 24 22 22 22 23 22 21 19 18 18 19 19 20 21 24 26 29 29 24 20 17 17 16 15 15 14 14 13 13 13 12 12 13 14
Wind_Direction
311 310 309 308 309 310 311 312 311 309 305 302 312 302 301 299 307 312 311 313 307 308 306 305 307 303 300 296 293 290 285 279 276 273 272 268 269 268 255 253 252 253 246
312 311 314 314 312 312 313 311 310 309 303 304 304 318 314 312 311 308 309 313 307 307 309 311 309 305 302 299 296 292 286 280 275 273 270 268 271 270 259 243 249 251 257
315 315 315 313 314 315 317 316 313 307 304 302 303 311 304 307 306 313 312 309 315 316 316 313 311 308 305 302 301 297 291 284 276 271 269 266 267 260 263 256 243 242 252
319 318 317 318 319 322 322 320 317 310 307 306 308 301 302 309 309 311 315 316 316 317 316 314 310 308 307 306 303 298 292 284 279 272 265 263 263 264 261 258 256 253 249
322 319 319 321 322 322 321 320 315 310 307 309 308 302 298 307 311 315 315 316 317 316 313 312 311 310 308 307 305 304 294 284 278 272 270 264 263 262 262 256 253 249 245
321 320 321 320 322 323 320 319 316 314 309 304 303 299 300 308 315 317 316 317 315 314 317 316 313 312 311 307 304 300 296 285 279 267 261 260 259 263 262 261 260 258 251
321 321 321 322 324 322 319 316 314 313 305 287 305 297 308 312 319 318 317 315 318 321 321 319 316 316 313 309 304 299 293 287 279 277 264 258 258 261 262 259 259 256 251
321 321 321 322 322 321 318 316 316 312 306 303 302 311 313 315 317 317 317 320 323 324 323 320 319 319 315 311 305 301 299 295 283 276 274 267 262 260 259 257 253 250 251
319 319 319 320 322 322 318 315 313 310 308 307 311 313 310 312 316 318 319 322 325 327 325 322 322 323 324 321 314 305 299 290 283 281 273 268 264 263 258 254 252 248 248
317 317 319 320 322 320 319 316 312 308 306 309 305 304 311 316 319 320 322 325 328 331 329 326 330 333 332 329 323 316 308 299 288 278 276 271 265 260 256 253 244 241 243
317 318 319 320 321 320 320 316 312 311 308 304 307 313 315 318 320 321 324 327 331 334 331 333 337 337 336 333 330 326 317 305 294 284 278 271 268 262 252 246 240 239 240
317 318 317 316 318 318 317 315 313 313 313 314 315 315 318 318 320 322 326 329 333 335 335 336 339 341 340 343 341 342 338 331 310 287 274 267 260 253 243 236 234 232 233
319 318 315 312 313 314 314 312 312 314 313 313 314 316 317 318 320 322 325 328 331 338 339 338 341 346 343 348 346 349 351 348 348 329 301 281 254 239 228 224 219 211 209
320 318 315 308 309 312 309 308 311 313 312 312 313 315 317 318 319 320 322 326 331 342 344 341 342 348 355 357 358 355 355 354 349 2 40 61 109 127 131 156 169 168 176
322 321 318 307 311 314 310 309 312 314 314 313 313 315 318 319 318 320 323 327 334 346 348 347 347 344 348 353 358 2 4 5 359 349 93 109 125 135 127 139 153 161 168
324 323 317 306 299 305 306 307 311 314 315 314 316 316 317 319 320 321 324 329 336 346 350 351 349 347 348 350 359 4 8 11 12 360 163 152 141 160 175 183 191 214 237
322 323 317 307 297 299 302 309 314 314 313 313 315 314 317 321 321 323 326 330 336 344 348 352 352 350 348 350 354 360 7 13 20 26 223 201 194 209 226 235 238 245 245
319 319 317 308 299 299 304 307 308 311 312 310 311 312 318 323 324 325 327 329 337 340 341 347 353 352 352 352 352 353 358 4 12 19 22 339 241 242 247 259 262 260 246
317 313 314 308 303 303 309 309 306 306 308 309 310 315 321 325 327 328 329 333 337 338 336 340 347 351 351 351 351 352 350 356 0 4 7 2 319 264 259 262 263 259 253
317 308 308 308 304 307 311 313 306 304 304 303 306 316 322 326 330 332 333 336 339 338 339 336 339 344 345 347 349 348 348 345 346 349 348 345 340 322 279 267 265 262 255
317 310 301 301 300 303 307 314 310 304 301 298 303 313 320 326 331 331 335 335 338 339 339 340 338 334 335 337 340 343 343 339 336 327 336 333 325 317 305 286 274 273 268
314 311 301 295 296 301 309 316 312 303 298 294 299 308 316 323 325 328 333 334 338 342 341 339 337 335 327 326 329 330 332 334 331 328 323 318 324 315 308 299 288 284 279
311 307 301 291 294 300 307 312 311 302 295 292 295 301 306 311 316 321 328 331 335 340 341 341 339 334 327 321 316 319 321 322 323 322 318 312 306 305 307 298 292 287 280
310 305 297 289 292 295 300 308 309 304 297 291 292 297 299 301 306 310 315 319 327 334 337 339 338 336 330 320 314 309 311 312 314 313 313 309 304 298 290 286 287 283 279
308 301 296 289 288 291 292 297 302 304 300 293 288 291 294 296 296 300 304 308 316 326 335 338 339 337 333 323 314 309 304 306 308 309 309 306 303 298 291 286 275 271 273
305 300 293 289 286 285 287 291 292 292 296 296 290 285 286 290 292 293 297 302 308 315 323 331 336 338 335 327 317 311 307 302 304 307 308 305 302 298 293 286 280 276 268